Goodland, KS

5:24 AM MDT on April 30, 2017 (GMT -0600)
Renner-Goodland Municipal

Weather History for KGLD - January, 2012

Change the Weather History Date:

Sunday, January 22, 2012

  Actual Average Record
Temperature  
Mean Temperature 37 °F 30 °F  
Max Temperature 49 °F 42 °F 73 °F (1967)
Min Temperature 24 °F 17 °F -10 °F (1966)
Degree Days  
Heating Degree Days 28 35  
Month to date heating degree days 678 772  
Since 1 July heating degree days 2973 3179  
Cooling Degree Days 0 0  
Month to date cooling degree days 0 0  
Year to date cooling degree days 0 0  
Moisture  
Dew Point 27 °F    
Average Humidity 66    
Maximum Humidity 85    
Minimum Humidity 46    
Precipitation  
Precipitation 0.06 in 0.02 in 0.16 in (1965)
Month to date precipitation 0.09 0.26  
Year to date precipitation 0.09 0.26  
Snow  
Snow T in 0.20 in - ()
Month to date snowfall 0.3 4.0  
Since 1 July snowfall 11.7 16.7  
Snow Depth 0.00 in    
Sea Level Pressure  
Sea Level Pressure 29.58 in    
Wind  
Wind Speed 20 mph (NW)    
Max Wind Speed 45 mph    
Max Gust Speed 58 mph    
Visibility 10 miles    
Events Rain , Snow    
T = Trace of Precipitation, MM = Missing Value Source: NWS Daily Summary

Daily Weather History Graph

Daily Weather History Graph

Search for Another Location

Airport or City:

Trip Planner

Search our weather history database for the weather conditions in past years. The results will help you decide how hot, cold, wet, or windy it might be!

Date:

Astronomy

Jan. 22, 2012 Rise Set
Actual Time 7:01 AM MST 4:55 PM MST
Civil Twilight 6:32 AM MST 5:24 PM MST
Nautical Twilight 6:00 AM MST 5:56 PM MST
Astronomical Twilight 5:28 AM MST 6:28 PM MST
Moon 6:19 AM MST (1/22) 4:39 PM MST (1/22)
Length of Visible Light 10h 51m
Length of Day
9h 53m
Waning Crescent, 0% of the Moon is Illuminated
Jan 22
Waning Crescent
Jan 23
New
Jan 30
First Quarter
Feb 7
Full
Feb 14
Last Quarter

Hourly Weather History & Observations

Time (MST) Temp. Windchill Dew Point Humidity Pressure Visibility Wind Dir Wind Speed Gust Speed Precip Events Conditions
12:53 AM 46.0 °F 40.6 °F 28.9 °F 51% 29.22 in 10.0 mi SW 11.5 mph - N/A   Clear
1:53 AM 46.9 °F - 28.9 °F 50% 29.22 in 10.0 mi SW 11.5 mph - N/A   Clear
2:53 AM 39.9 °F 33.4 °F 28.0 °F 63% 29.25 in 10.0 mi SW 10.4 mph - N/A   Clear
3:53 AM 34.0 °F 28.8 °F 25.0 °F 70% 29.26 in 10.0 mi West 5.8 mph - N/A   Clear
4:53 AM 30.9 °F 23.5 °F 25.0 °F 79% 29.30 in 10.0 mi West 8.1 mph - N/A   Overcast
5:53 AM 30.0 °F 21.1 °F 24.1 °F 79% 29.32 in 10.0 mi NW 10.4 mph - N/A   Mostly Cloudy
6:53 AM 37.9 °F 30.5 °F 28.9 °F 70% 29.33 in 10.0 mi NW 11.5 mph - N/A   Overcast
7:53 AM 43.0 °F 32.5 °F 36.0 °F 76% 29.37 in 6.0 mi NNW 29.9 mph 39.1 mph 0.03 in Rain Light Rain
8:53 AM 42.8 °F 33.1 °F 35.6 °F 76% 29.41 in 10.0 mi NW 25.3 mph 33.4 mph N/A   Overcast
9:44 AM 41.0 °F 30.7 °F 35.6 °F 81% 29.45 in 10.0 mi NNW 25.3 mph 35.7 mph N/A   Overcast
9:53 AM 41.0 °F 29.7 °F 35.1 °F 79% 29.46 in 10.0 mi NW 31.1 mph 42.6 mph N/A   Overcast
10:53 AM 37.0 °F 23.7 °F 34.0 °F 89% 29.54 in 9.0 mi NNW 34.5 mph 46.0 mph 0.00 in Snow Light Snow
11:53 AM 37.0 °F 23.1 °F 33.1 °F 86% 29.57 in 10.0 mi NNW 38.0 mph 47.2 mph 0.00 in   Overcast
12:20 PM 37.4 °F 23.3 °F 33.8 °F 87% 29.56 in 10.0 mi NNW 40.3 mph 54.1 mph N/A   Overcast
12:32 PM 37.4 °F 23.3 °F 32.0 °F 81% 29.57 in 10.0 mi NNW 40.3 mph 49.5 mph N/A   Overcast
12:53 PM 36.0 °F 22.0 °F 33.1 °F 89% 29.57 in 6.0 mi NNW 35.7 mph 48.3 mph 0.00 in Snow Light Snow
1:24 PM 37.4 °F 23.6 °F 33.8 °F 87% 29.58 in 9.0 mi North 38.0 mph 52.9 mph 0.01 in   Overcast
1:53 PM 39.9 °F 27.1 °F 30.9 °F 70% 29.57 in 10.0 mi North 38.0 mph 46.0 mph 0.01 in   Scattered Clouds
2:53 PM 41.0 °F 29.3 °F 28.9 °F 62% 29.63 in 10.0 mi NNW 33.4 mph 48.3 mph N/A   Mostly Cloudy
3:53 PM 41.0 °F 30.7 °F 23.0 °F 49% 29.70 in 10.0 mi NNW 25.3 mph 39.1 mph N/A   Clear
4:53 PM 37.0 °F 25.9 °F 19.9 °F 50% 29.77 in 10.0 mi NNW 23.0 mph 29.9 mph N/A   Clear
5:53 PM 32.0 °F 22.5 °F 19.9 °F 61% 29.85 in 10.0 mi NNW 12.7 mph - N/A   Clear
6:53 PM 30.0 °F 20.5 °F 19.0 °F 64% 29.87 in 10.0 mi NNW 11.5 mph - N/A   Clear
7:53 PM 27.0 °F 16.7 °F 19.0 °F 72% 29.88 in 10.0 mi NNW 11.5 mph - N/A   Clear
8:53 PM 30.9 °F 18.7 °F 19.9 °F 64% 29.88 in 10.0 mi NNW 19.6 mph 27.6 mph N/A   Clear
9:53 PM 30.9 °F 19.4 °F 18.0 °F 59% 29.90 in 10.0 mi NNW 17.3 mph - N/A   Clear
10:53 PM 28.9 °F 16.9 °F 17.1 °F 61% 29.92 in 10.0 mi NNW 17.3 mph - N/A   Clear
11:40 PM 26.6 °F 15.7 °F 17.6 °F 69% 29.88 in 10.0 mi WNW 12.7 mph - N/A   Clear
11:53 PM 25.0 °F 12.6 °F 16.0 °F 69% 29.94 in 10.0 mi West 15.0 mph - N/A   Clear